Regional Weather Roundup
Issued by NWS Sterling, VA

Home | Current Version | Previous Version | Text Only | Print | Product List | Glossary Off
Versions: 1 2 3 4 5 6 7 8 9 10 11 12 13 14 15 16 17 18 19 20 21 22 23 24 25 26 27 28 29 30 31 32 33 34 35 36 37 38 39 40 41 42 43 44 45 46 47 48 49 50

000
ASUS41 KLWX 261010
RWRLWX

REGIONAL WEATHER ROUNDUP
NATIONAL WEATHER SERVICE BALTIMORE MD/WASHINGTON DC
500 AM EST WED NOV 26 2014

Note: "FAIR" indicates few or no clouds below 12,000 feet
with no significant weather and/or obstructions to visibility.
 TC=TEMPERATURE CELSIUS

 * =Non NWS site. Station does not report precipitation (e.g. rain,
    snow, etc.), thunder, or fog.

DCZ001-MDZ009-015-VAZ040>042-051-053>054-261100-
WASHINGTON METRO

CITY           SKY/WX    TMP DP  RH WIND       PRES   REMARKS
WASHINGTON NAT LGT RAIN  47  39  74 E7        30.07S
DULLES         RAIN      41  38  89 N8        30.06F
ANDREWS AFB    LGT RAIN  44  40  87 NE6       30.06S
FT BELVOIR     LGT RAIN  45  42  89 CALM      30.07R
QUANTICO       LGT RAIN  45  42  89 CALM      30.06F
COLLEGE PARK*  CLOUDY    45  41  87 CALM      30.07R
LEESBURG*      LGT RAIN  41  37  87 NE14      30.08S
MANASSAS*      CLOUDY    45  45 100 N8        30.04F
GAITHERSBURG*  CLOUDY    41  37  87 N6        30.08F

$$

MDZ006>007-011-014-261100-
BALTIMORE METRO

CITY           SKY/WX    TMP DP  RH WIND       PRES   REMARKS
BWI AIRPORT    LGT RAIN  45  38  76 N3        30.06F
MD SCIENCE CTR   N/A     46  38  73 MISG      30.07F
MARTIN STATE   RAIN      45  39  81 CALM      30.07F
ANNAPOLIS      LGT RAIN  45  39  79 E3        30.08R
FORT MEADE*    CLOUDY    45  37  76 NE3       30.08F

$$

MDZ012-015-019>023-261100-
MARYLAND EASTERN SHORE

CITY           SKY/WX    TMP DP  RH WIND       PRES   REMARKS
OCEAN CITY     RAIN      46  41  82 NE16G25   30.05F
SALISBURY      LGT RAIN  47  42  83 NE12      30.06F
BAY BRIDGE AP* LGT RAIN  45  37  76 NE6       30.08R
CAMBRIDGE*     CLOUDY    45  41  87 E6        30.07S
EASTON*        LGT RAIN  46  45  99 SE5       30.12R

$$

MDZ017>025-261100-
SOUTHERN MARYLAND

CITY           SKY/WX    TMP DP  RH WIND       PRES   REMARKS
PATUXENT RIVER LGT RAIN  45  41  86 E10       30.07R FOG
ST INIGOES     RAIN      45  40  82 NE14G21   30.07R
LEONARDTOWN*   CLOUDY    43  41  93 NE5       30.08R

$$

MDZ003>005-261100-
NORTH CENTRAL MARYLAND

CITY           SKY/WX    TMP DP  RH WIND       PRES   REMARKS
FREDERICK*     LGT RAIN  43  32  65 N13       30.11F
HAGERSTOWN APT CLOUDY    42  30  62 N8        30.08F
WESTMINSTER*   LGT RAIN  43  32  65 NE9         N/A

$$

MDZ501>502-261100-
WESTERN MARYLAND

CITY           SKY/WX    TMP DP  RH WIND       PRES   REMARKS
OAKLAND*       CLOUDY    30  30 100 CALM      30.03R
CUMBERLAND*    CLOUDY    39  28  65 N5        30.14R

$$

VAZ025>031-261100-
SHENANDOAH VALLEY

CITY           SKY/WX    TMP DP  RH WIND       PRES   REMARKS
WINCHESTER*    LGT RAIN  41  32  70 CALM      30.07F
FRONT ROYAL*   CLOUDY    37  36  93 CALM      30.08R
LURAY*         LGT RAIN  41  37  87 N12       30.06R
NEW MARKET*    CLOUDY    40  34  80 N8        30.06R
STAUNTON*      RAIN      40  36  85 NE9       30.06R
WAYNESBORO*    CLOUDY    37  36  94 N5        30.03R

$$

WVZ021-048>050-054>055-261100-
EASTERN WEST VIRGINIA PANHANDLE

CITY           SKY/WX    TMP DP  RH WIND       PRES   REMARKS
MARTINSBURG    LGT RAIN  41  31  67 N10       30.08F
PETERSBURG*    RAIN      37  29  72 NW6       30.11S

$$

VAZ036>039-050-261100-
CENTRAL FOOTHILLS

CITY           SKY/WX    TMP DP  RH WIND       PRES   REMARKS
CHARLOTTESVILL LGT RAIN  44  42  93 N5        30.02F FOG
CULPEPER*      RAIN      45  43  93 N3        30.05S
ORANGE*        LGT RAIN  45  43  93 CALM      30.05S
GORDONSVILLE*  CLOUDY    43  42  95 CALM      30.03S
WARRENTON*     RAIN      45  45 100 NE6       30.03F

$$

VAZ055>057-261100-
NORTH AND CENTRAL PIEDMONT

CITY           SKY/WX    TMP DP  RH WIND       PRES   REMARKS
FREDERICKSBRG* RAIN      46  45  97 NE5       30.05F
STAFFORD*      RAIN      44  44 100 CALM      30.09F

$$

NCZ024-NYZ072-PAZ021-071-VAZ022-071-261100-
OTHER REGIONAL OBSERVATIONS

CITY           SKY/WX    TMP DP  RH WIND       PRES   REMARKS
NEW YORK CITY  CLOUDY    48  28  46 VRB7      30.14F
PHILADELPHIA   LGT RAIN  48  34  58 NE9       30.08F
PITTSBURGH     CLOUDY    31  25  78 NE5       30.12S
ROANOKE        RAIN      41  38  89 W5        30.02F
RICHMOND       RAIN      46  42  86 NE10      30.02F FOG
RALEIGH        RAIN      49  46  90 N10G20    29.90F VSB 1

$$

ANZ530>537-261100-
MARINE OBSERVATIONS

STATION/POSITION TIME  TEMP    WIND        PRES
                       AIR SEA DIR/SP/G
                 (UTC) (F)     (DEG/KT/KT) (MB)
THOMAS PT LIGHT  1000   46 48   60/  9/ 10 1020.2R
BALT KEY BRIDGE  1000   47     350/  7/  7 1017.6F
COVE POINT       1000   44      90/  8/ 11 1018.4R
LEWISETTA        1000   46 50   80/ 16/ 20 1017.7F
SOLOMONS ISLAND  1000      50                N/A
PINEY POINT      1000           90/ 12/ 13   N/A

$$




USA.gov is the U.S. government's official web portal to all federal, state and local government web resources and services.